Location: Litvinovka
(48.6667°N, 34.3500°E)
Time: 03:45:05
(UTC+00:00)

Cosmos 1937 Rocket - Pass Details

Date: 18 September 2020
Orbit: 747 x 779 km, 74.0° (Epoch: 22 October)

Event Time Altitude Azimuth Distance (km) Brightness Sun altitude
Rises 17:13:56 0° 211° (SSW) 3,234 6.9 -14.6°
Reaches altitude 10° 17:16:20 10° 215° (SW) 2,307 6.2 -15.0°
Maximum altitude 17:21:32 63° 296° (WNW) 855 4.0 -15.8°
Drops below altitude 10° 17:26:43 10° 18° (NNE) 2,301 6.0 -16.6°
Sets 17:29:07 0° 22° (NNE) 3,226 6.8 -17.0°
